ROD SEARCH UCC SEARCH
ROAM Help
 


David B. Hooten, County Clerk
Oklahoma County, Oklahoma
 
 Advanced Search
 What is Phonetic Search?
Sort By : 

We Recommend using All Info when you want to see all party and legal information.

We Recommend using Party Info when you want to see all party information, but not additional legal information.

We Recommend using Legal Info when you want to see all legal information, but not additional party information.

We Recommend using Document Info only when searching by Instrument Number, Book or Page. Running searches by these fields and using this filter will allow you to see 1 document per row.


Mode: PC|Mobile|Tablet
Results: All Info | Party Info | Legal Info | Document Info
1 2 3 4 5 6 7 8 9 10 of 3111 Go »

To view Plats, Click Here


ROD Results 1 - 30 of 93318 for . (0.00 seconds)

Index Type

Doc Type

Party Role


Party Seq

Legal Seq

RoleFilter

Instrument #Date RecordedNameParty RoleDoc TypeOther NameBookPageLegacy NumberFirst ReferenceLegal DescriptionBriefcaseView ImageView Full Screen
200411823507/21/2004 02:01:00 PMCALDWELL LARRY SGrantorMORTGAGEARVEST BANK93994672004118235LOT:9 BLK:1 SUB:MCGINNIS RIDGE
200411823507/21/2004 02:01:00 PMCALDWELL BARBARA JGrantorMORTGAGEARVEST BANK93994672004118235LOT:9 BLK:1 SUB:MCGINNIS RIDGE
200411823507/21/2004 02:01:00 PMCALDWELL LARRY SGrantorMORTGAGEARVEST BANK93994672004118235MCGINNIS RIDGE | 1 | 10 |
200411823507/21/2004 02:01:00 PMARVEST BANKGranteeMORTGAGECALDWELL LARRY S93994672004118235MCGINNIS RIDGE | 1 | 10 |
200411823507/21/2004 02:01:00 PMCALDWELL BARBARA JGrantorMORTGAGEARVEST BANK93994672004118235MCGINNIS RIDGE | 1 | 10 |
200411823707/21/2004 02:01:00 PMJACKSON TONY DGrantorMORTGAGEFIRST FIDELITY BANK93994782004118237LOT:14 BLK:2 SUB:CRUTCHO PARK
200411823707/21/2004 02:01:00 PMFIRST FIDELITY BANKGranteeMORTGAGEBARTODEJ JACKSON MICHELLE L93994782004118237LOT:14 BLK:2 SUB:CRUTCHO PARK
200411800007/21/2004 12:26:09 AMCITICORP TRUST BANKGranteeMORTGAGEPHILLIPS MARGARET A939815282004118000LOT:24 BLK:36 SUB:PUTNAM HEIGHTS
200411823707/21/2004 02:01:00 PMBARTODEJ JACKSON MICHELLE LGrantorMORTGAGEFIRST FIDELITY BANK93994782004118237LOT:14 BLK:2 SUB:CRUTCHO PARK
200411800007/21/2004 12:26:09 AMPHILLIPS MARGARET AGrantorMORTGAGECITICORP TRUST BANK939815282004118000LOT:24 BLK:36 SUB:PUTNAM HEIGHTS
200411801407/21/2004 12:34:32 AMDAVES ROBERT GLENGranteeDISCHARGEDISTRICT COURT OF OKLAHOMA COUNTY939815772004118014LOT:5 BLK:4 SUB:CARTER PARK 2ND
200411822407/21/2004 02:01:00 PMKRUEGER FREDGrantorEXTENSIONARVEST BANK93993892004118224DETAIL:BK NA
200411801407/21/2004 12:34:32 AMDISTRICT COURT OF OKLAHOMA COUNTYGrantorDISCHARGEDAVES ROBERT GLEN939815772004118014LOT:5 BLK:4 SUB:CARTER PARK 2ND
200411822407/21/2004 02:01:00 PMARVEST BANKGranteeEXTENSIONKRUEGER FRED93993892004118224DETAIL:BK NA
200411822507/21/2004 02:01:00 PMTACHENY DALE PGrantorMODIFICATIONMIDFIRST BANK93993912004118225LOT:21 BLK:1 SUB:TEALWOOD
200411822507/21/2004 02:01:00 PMSHEAD LINDAGrantorMODIFICATIONMIDFIRST BANK93993912004118225LOT:21 BLK:1 SUB:TEALWOOD
200411801407/21/2004 12:34:32 AMDAVES ROBERT GLENGranteeDISCHARGEDISTRICT COURT OF OKLAHOMA COUNTY939815772004118014LOT:15 BLK:5 SUB:CARTER PARK 2ND
200411801407/21/2004 12:34:32 AMDAVES ROBERT GLENGranteeDISCHARGEDISTRICT COURT OF OKLAHOMA COUNTY939815772004118014DETAIL:CF-93-7956
200411801407/21/2004 12:34:32 AMDISTRICT COURT OF OKLAHOMA COUNTYGrantorDISCHARGEDAVES ROBERT GLEN939815772004118014LOT:15 BLK:5 SUB:CARTER PARK 2ND
200411822507/21/2004 02:01:00 PMMIDFIRST BANKGranteeMODIFICATIONTACHENY DALE P93993912004118225LOT:21 BLK:1 SUB:TEALWOOD
200411801407/21/2004 12:34:32 AMDISTRICT COURT OF OKLAHOMA COUNTYGrantorDISCHARGEDAVES ROBERT GLEN939815772004118014DETAIL:CF-93-7956
200411822507/21/2004 02:01:00 PMTACHENY DALE PGrantorMODIFICATIONMIDFIRST BANK93993912004118225DETAIL:9200-982
200411822507/21/2004 02:01:00 PMSHEAD LINDAGrantorMODIFICATIONMIDFIRST BANK93993912004118225DETAIL:9200-982
200411822507/21/2004 02:01:00 PMMIDFIRST BANKGranteeMODIFICATIONTACHENY DALE P93993912004118225DETAIL:9200-982
200411823707/21/2004 02:01:00 PMFIRST FIDELITY BANKGranteeMORTGAGEBARTODEJ JACKSON MICHELLE L93994782004118237LOT:13 BLK:2 SUB:CRUTCHO PARK
200411823707/21/2004 02:01:00 PMJACKSON TONY DGrantorMORTGAGEFIRST FIDELITY BANK93994782004118237LOT:13 BLK:2 SUB:CRUTCHO PARK
200411823707/21/2004 02:01:00 PMBARTODEJ JACKSON MICHELLE LGrantorMORTGAGEFIRST FIDELITY BANK93994782004118237LOT:13 BLK:2 SUB:CRUTCHO PARK
200411824407/21/2004 02:01:00 PMSUNBELT CONSTRUCTION INCGrantorMORTGAGEAMERICREST BANK93995532004118244LOT:2 BLK:15 SUB:WOODVINE IV
200411822607/21/2004 02:01:00 PMWILSON SHONDA LEEGrantorMORTGAGEMIDFIRST BANK93993942004118226LOT:5 BLK:12 SUB:HUNTWICK II BLOCKS 12-13
200411822607/21/2004 02:01:00 PMMIDFIRST BANKGranteeMORTGAGEWILSON WILLIAM B93993942004118226LOT:5 BLK:12 SUB:HUNTWICK II BLOCKS 12-13

Clicking on the Columns below will only sort the current page.

1 2 3 4 5 6 7 8 9 10 of 3111 Go »


Copyright © Granicus, INC.
Results per page :